Weather History for KNGU - August, 2014

Change the Weather History Date:

Sunday, August 10, 2014

  Actual Average Record
Temperature  
Mean Temperature 76 °F -  
Max Temperature 82 °F 83 °F 97 °F (2001)
Min Temperature 70 °F 70 °F 64 °F (2002)
Cooling Degree Days 11    
Growing Degree Days 26 (Base 50)    
Moisture  
Dew Point 64 °F    
Average Humidity 68    
Maximum Humidity 84    
Minimum Humidity 47    
Precipitation  
Precipitation 0.00 in - - ()
Sea Level Pressure  
Sea Level Pressure 30.12 in    
Wind  
Wind Speed 4 mph (East)    
Max Wind Speed 13 mph    
Max Gust Speed -    
Visibility 10 miles    
Events      
Averages and records for this station are not official NWS values.
T = Trace of Precipitation, MM = Missing Value Source: NWS Daily Summary

Daily Weather History Graph

Daily Weather History Graph

Search for Another Location

Airport or City:

Trip Planner

Search our weather history database for the weather conditions in past years. The results will help you decide how hot, cold, wet, or windy it might be!

Date:

Astronomy

Aug. 10, 2014 Rise Set
Actual Time 6:17 AM EDT 8:02 PM EDT
Civil Twilight 5:49 AM EDT 8:30 PM EDT
Nautical Twilight 5:16 AM EDT 9:04 PM EDT
Astronomical Twilight 4:40 AM EDT 9:39 PM EDT
Moon 7:49 PM EDT (8/10) 6:06 AM EDT (8/10)
Length of Visible Light 14h 40m
Length of Day
13h 44m
Full, 100% of the Moon is Illuminated
Aug 10
Full
Aug 10
Full
Aug 17
Last Quarter
Aug 25
New
Sep 2
First Quarter

Hourly Weather History & Observations

Time (EDT) Temp. Heat Index Dew Point Humidity Pressure Visibility Wind Dir Wind Speed Gust Speed Precip Events Conditions
12:59 AM 73.0 °F - 64.0 °F 73% 30.13 in 9.0 mi Calm Calm - N/A   Mostly Cloudy
1:59 AM 71.1 °F - 64.9 °F 81% 30.12 in 9.0 mi Calm Calm - N/A   Mostly Cloudy
2:59 AM 72.0 °F - 66.0 °F 81% 30.11 in 9.0 mi Calm Calm - N/A   Mostly Cloudy
3:59 AM 71.1 °F - 66.0 °F 84% 30.10 in 9.0 mi Calm Calm - N/A   Mostly Cloudy
4:59 AM 71.1 °F - 66.0 °F 84% 30.10 in 10.0 mi ESE 3.5 mph - N/A   Mostly Cloudy
5:59 AM 71.1 °F - 64.9 °F 81% 30.11 in 10.0 mi Calm Calm - N/A   Mostly Cloudy
6:59 AM 70.0 °F - 64.9 °F 84% 30.12 in 9.0 mi East 3.5 mph - N/A   Scattered Clouds
7:59 AM 73.9 °F - 66.9 °F 79% 30.14 in 10.0 mi East 5.8 mph - N/A   Scattered Clouds
8:59 AM 77.0 °F - 66.0 °F 69% 30.15 in 10.0 mi East 10.4 mph - N/A   Mostly Cloudy
9:59 AM 78.1 °F - 64.9 °F 64% 30.14 in 10.0 mi ENE 10.4 mph - N/A   Mostly Cloudy
10:59 AM 79.0 °F - 64.0 °F 60% 30.15 in 10.0 mi ENE 12.7 mph - N/A   Mostly Cloudy
11:59 AM 81.0 °F 82.7 °F 64.9 °F 58% 30.15 in 10.0 mi ENE 9.2 mph - N/A   Mostly Cloudy
12:59 PM 81.0 °F 82.2 °F 63.0 °F 54% 30.15 in 10.0 mi East 10.4 mph - N/A   Mostly Cloudy
1:59 PM 82.0 °F 83.4 °F 64.0 °F 54% 30.14 in 10.0 mi ENE 12.7 mph - N/A   Scattered Clouds
2:59 PM 82.0 °F 82.4 °F 60.1 °F 47% 30.13 in 10.0 mi East 12.7 mph - N/A   Scattered Clouds
3:59 PM 81.0 °F 81.7 °F 61.0 °F 50% 30.12 in 10.0 mi ENE 11.5 mph - N/A   Scattered Clouds
4:59 PM 80.1 °F 81.5 °F 63.0 °F 56% 30.11 in 10.0 mi ENE 11.5 mph - N/A   Scattered Clouds
5:59 PM 79.0 °F - 63.0 °F 58% 30.10 in 10.0 mi ENE 11.5 mph - N/A   Scattered Clouds
6:59 PM 78.1 °F - 62.1 °F 58% 30.10 in 10.0 mi East 5.8 mph - N/A   Scattered Clouds
7:59 PM 75.0 °F - 61.0 °F 62% 30.10 in 10.0 mi ESE 6.9 mph - N/A   Scattered Clouds
8:59 PM 72.0 °F - 61.0 °F 68% 30.11 in 10.0 mi ESE 5.8 mph - N/A   Scattered Clouds
9:59 PM 72.0 °F - 62.1 °F 71% 30.12 in 10.0 mi East 5.8 mph - N/A   Scattered Clouds
10:59 PM 73.0 °F - 63.0 °F 71% 30.13 in 10.0 mi ESE 3.5 mph - N/A   Partly Cloudy
11:59 PM 72.0 °F - 63.0 °F 73% 30.12 in 10.0 mi Calm Calm - N/A   Partly Cloudy